Weather History for Drummond Island, MI

Change the Weather History Date:

Saturday, May 4, 2013

  Actual Average (KCIU) Record (KCIU)
Temperature  
Mean Temperature 56 °F -  
Max Temperature 68 °F 61 °F 75 °F (1980)
Min Temperature 44 °F 34 °F 23 °F (1983)
Degree Days  
Heating Degree Days 9    
Growing Degree Days 6 (Base 50)    
Moisture  
Dew Point 42 °F    
Average Humidity 57    
Maximum Humidity 87    
Minimum Humidity 40    
Precipitation  
Precipitation 0.00 in - - ()
Sea Level Pressure  
Sea Level Pressure 30.16 in    
Wind  
Wind Speed 5 mph (SE)    
Max Wind Speed 15 mph    
Max Gust Speed 22 mph    
Visibility 10 miles    
Events      
Averages and records for this station are not official NWS values.
T = Trace of Precipitation, MM = Missing Value Source: NWS Daily Summary

Daily Weather History Graph

Daily Weather History Graph

Search for Another Location

Airport:

Trip Planner

Search our weather history database for the weather conditions in past years. The results will help you decide how hot, cold, wet, or windy it might be!

Date:

Astronomy

May. 04, 2013 Rise Set
Actual Time 6:17 AM EDT 8:47 PM EDT
Civil Twilight 5:43 AM EDT 9:20 PM EDT
Nautical Twilight 5:01 AM EDT 10:03 PM EDT
Astronomical Twilight 4:13 AM EDT 10:51 PM EDT
Moon 3:32 AM EDT (5/4) 3:28 PM EDT (5/4)
Length of Visible Light 15h 37m
Length of Day
14h 30m
Waning Crescent, 27% of the Moon is Illuminated
May 4
Waning Crescent
May 9
New
May 18
First Quarter
May 25
Full
May 31
Last Quarter

Hourly Weather History & Observations

Time (EDT) Temp. Windchill Dew Point Humidity Pressure Visibility Wind Dir Wind Speed Gust Speed Precip Events Conditions
12:15 AM 57.2 °F - 43.0 °F 59% 30.15 in 10.0 mi ESE 4.6 mph - N/A   Clear
12:35 AM 57.6 °F - 43.3 °F 59% 30.15 in 10.0 mi ESE 3.5 mph - N/A   Clear
12:56 AM 57.6 °F - 43.5 °F 59% 30.15 in 10.0 mi ESE 4.6 mph - N/A   Clear
1:15 AM 57.6 °F - 43.7 °F 60% 30.15 in 10.0 mi ESE 4.6 mph - N/A   Clear
1:35 AM 57.7 °F - 43.7 °F 60% 30.15 in 10.0 mi ESE 4.6 mph - N/A   Clear
1:55 AM 56.8 °F - 43.2 °F 60% 30.15 in 10.0 mi ESE 3.5 mph - N/A   Clear
2:15 AM 54.3 °F - 42.8 °F 65% 30.15 in 10.0 mi SE 3.5 mph - N/A   Clear
2:36 AM 55.8 °F - 43.2 °F 63% 30.15 in 10.0 mi SE 4.6 mph - N/A   Clear
2:55 AM 55.9 °F - 43.0 °F 62% 30.15 in 10.0 mi SSE 4.6 mph - N/A   Clear
3:15 AM 55.6 °F - 42.4 °F 61% 30.15 in 10.0 mi Calm Calm - N/A   Clear
3:35 AM 51.1 °F - 42.1 °F 71% 30.15 in 10.0 mi Calm Calm - N/A   Clear
3:55 AM 50.7 °F - 42.4 °F 73% 30.15 in 10.0 mi Calm Calm - N/A   Clear
4:16 AM 50.9 °F - 42.3 °F 72% 30.15 in 10.0 mi Calm Calm - N/A   Clear
4:35 AM 45.9 °F - 41.9 °F 86% 30.15 in 10.0 mi Calm Calm - N/A   Clear
4:55 AM 45.5 °F - 41.9 °F 87% 30.15 in 10.0 mi Calm Calm - N/A   Clear
5:16 AM 48.2 °F - 41.5 °F 78% 30.15 in 10.0 mi Calm Calm - N/A   Clear
5:35 AM 47.8 °F - 41.2 °F 78% 30.15 in 10.0 mi Calm Calm - N/A   Clear
5:55 AM 44.8 °F 43.3 °F 40.6 °F 85% 30.15 in 10.0 mi SE 3.5 mph - N/A   Clear
6:16 AM 45.5 °F 44.2 °F 41.0 °F 84% 30.15 in 10.0 mi SE 3.5 mph - N/A   Clear
6:35 AM 47.7 °F - 41.5 °F 79% 30.15 in 10.0 mi SE 3.5 mph - N/A   Clear
6:56 AM 50.0 °F - 42.6 °F 76% 30.16 in 10.0 mi SE 5.8 mph - N/A   Clear
7:15 AM 52.0 °F - 43.2 °F 72% 30.16 in 10.0 mi ESE 6.9 mph - N/A   Clear
7:36 AM 54.1 °F - 43.5 °F 67% 30.17 in 10.0 mi ESE 5.8 mph - N/A   Clear
7:55 AM 55.4 °F - 43.7 °F 65% 30.17 in 10.0 mi SE 8.1 mph - N/A   Clear
8:15 AM 57.9 °F - 44.1 °F 60% 30.16 in 10.0 mi SE 6.9 mph - N/A   Clear
8:36 AM 59.0 °F - 43.5 °F 56% 30.17 in 10.0 mi SE 8.1 mph 16.1 mph N/A   Clear
8:55 AM 60.1 °F - 43.9 °F 55% 30.17 in 10.0 mi SSE 5.8 mph - N/A   Clear
9:15 AM 61.2 °F - 44.1 °F 53% 30.17 in 10.0 mi SE 8.1 mph - N/A   Clear
9:36 AM 62.2 °F - 44.2 °F 52% 30.17 in 10.0 mi SSE 6.9 mph - N/A   Clear
9:55 AM 64.0 °F - 44.8 °F 50% 30.17 in 10.0 mi SSE 5.8 mph - N/A   Clear
10:15 AM 64.0 °F - 44.6 °F 49% 30.17 in 10.0 mi SSE 5.8 mph - N/A   Clear
10:36 AM 64.9 °F - 45.3 °F 49% 30.17 in 10.0 mi SSE 6.9 mph - N/A   Clear
10:55 AM 65.7 °F - 45.0 °F 47% 30.17 in 10.0 mi ESE 5.8 mph - N/A   Clear
11:15 AM 65.8 °F - 45.7 °F 48% 30.17 in 10.0 mi SE 5.8 mph - N/A   Clear
11:36 AM 65.5 °F - 45.3 °F 48% 30.17 in 10.0 mi SE 5.8 mph - N/A   Clear
11:55 AM 67.3 °F - 46.0 °F 46% 30.17 in 10.0 mi SSE 5.8 mph - N/A   Clear
12:16 PM 68.0 °F - 45.9 °F 45% 30.17 in 10.0 mi SSE 4.6 mph - N/A   Clear
12:35 PM 68.2 °F - 46.8 °F 46% 30.17 in 10.0 mi South 6.9 mph - N/A   Clear
12:55 PM 68.2 °F - 46.6 °F 46% 30.17 in 10.0 mi South 6.9 mph - N/A   Clear
1:16 PM 67.5 °F - 46.6 °F 47% 30.17 in 10.0 mi South 9.2 mph - N/A   Clear
1:40 PM 66.4 °F - 46.4 °F 49% 30.17 in 10.0 mi SSE 9.2 mph - N/A   Clear
1:56 PM 65.7 °F - 46.2 °F 49% 30.17 in 10.0 mi SSE 10.4 mph - N/A   Clear
2:15 PM 65.7 °F - 46.2 °F 49% 30.17 in 10.0 mi SSE 9.2 mph - N/A   Clear
2:35 PM 67.1 °F - 46.6 °F 48% 30.16 in 10.0 mi SSE 10.4 mph - N/A   Clear
2:56 PM 66.2 °F - 45.9 °F 48% 30.17 in 10.0 mi SE 9.2 mph - N/A   Clear
3:15 PM 65.1 °F - 45.9 °F 50% 30.16 in 10.0 mi SSE 6.9 mph - N/A   Clear
3:35 PM 67.1 °F - 45.9 °F 46% 30.16 in 10.0 mi SE 10.4 mph - N/A   Clear
3:56 PM 67.5 °F - 45.9 °F 46% 30.15 in 7.0 mi SE 11.5 mph 16.1 mph N/A   Clear
4:15 PM 65.5 °F - 45.1 °F 48% 30.15 in 10.0 mi ESE 11.5 mph 17.3 mph N/A   Clear
4:35 PM 64.9 °F - 44.6 °F 48% 30.15 in 10.0 mi ESE 11.5 mph 18.4 mph N/A   Clear
4:56 PM 63.5 °F - 43.7 °F 48% 30.15 in 10.0 mi ESE 11.5 mph 20.7 mph N/A   Clear
5:15 PM 63.5 °F - 42.8 °F 47% 30.15 in 10.0 mi ESE 15.0 mph 20.7 mph N/A   Clear
5:36 PM 62.8 °F - 41.9 °F 46% 30.15 in 10.0 mi ESE 10.4 mph 21.9 mph N/A   Clear
5:56 PM 61.7 °F - 39.4 °F 44% 30.15 in 10.0 mi SE 10.4 mph 17.3 mph N/A   Clear
6:15 PM 61.7 °F - 37.2 °F 40% 30.15 in 10.0 mi ESE 11.5 mph 19.6 mph N/A   Clear
6:36 PM 61.7 °F - 38.3 °F 42% 30.15 in 10.0 mi SE 8.1 mph - N/A   Clear
6:55 PM 61.7 °F - 37.8 °F 41% 30.14 in 10.0 mi SSE 8.1 mph - N/A   Clear
7:15 PM 60.8 °F - 37.4 °F 42% 30.14 in 10.0 mi SE 10.4 mph - N/A   Clear
7:36 PM 59.9 °F - 37.8 °F 44% 30.15 in 10.0 mi SE 8.1 mph - N/A   Clear
7:55 PM 59.2 °F - 38.5 °F 46% 30.15 in 10.0 mi SE 6.9 mph - N/A   Clear
8:16 PM 57.6 °F - 38.5 °F 49% 30.15 in 10.0 mi SE 5.8 mph - N/A   Clear
8:35 PM 56.1 °F - 38.7 °F 52% 30.15 in 10.0 mi SE 5.8 mph - N/A   Clear
8:55 PM 54.5 °F - 38.7 °F 55% 30.15 in 10.0 mi SE 4.6 mph - N/A   Clear
9:16 PM 53.8 °F - 38.1 °F 55% 30.16 in 10.0 mi SE 4.6 mph - N/A   Clear
9:35 PM 52.7 °F - 37.8 °F 57% 30.16 in 10.0 mi Calm Calm - N/A   Clear
9:55 PM 52.7 °F - 37.6 °F 56% 30.16 in 10.0 mi ESE 3.5 mph - N/A   Clear
10:16 PM 52.7 °F - 37.9 °F 57% 30.16 in 10.0 mi ESE 3.5 mph - N/A   Clear
10:35 PM 49.8 °F - 38.7 °F 65% 30.15 in 10.0 mi Calm Calm - N/A   Clear
10:55 PM 49.3 °F - 38.3 °F 66% 30.16 in 10.0 mi Calm Calm - N/A   Clear
11:16 PM 47.8 °F - 37.8 °F 68% 30.16 in 10.0 mi Calm Calm - N/A   Clear
11:35 PM 45.5 °F - 38.7 °F 77% 30.15 in 10.0 mi Calm Calm - N/A   Clear
11:56 PM 45.5 °F - 38.3 °F 76% 30.15 in 10.0 mi Calm Calm - N/A   Clear